Time,TemperatureF,DewpointF,PressureIn,WindDirection,WindDirectionDegrees,WindSpeedMPH,WindSpeedGustMPH,Humidity,HourlyPrecipIn,Conditions,Clouds,dailyrainin,SoftwareType,DateUTC
2013-04-02 00:02:00,36.0,25.0,30.24,NNW,330,0.0,3.0,65,0.00,,,0.00,,2013-04-02 05:02:00,
2013-04-02 00:12:00,36.0,25.0,30.24,NNW,330,0.0,3.0,65,0.00,,,0.00,,2013-04-02 05:12:00,
2013-04-02 00:22:00,35.0,25.0,30.24,NNW,340,0.0,0.0,66,0.00,,,0.00,,2013-04-02 05:22:00,
2013-04-02 00:32:00,35.0,24.0,30.25,NNW,338,0.0,0.0,65,0.00,,,0.00,,2013-04-02 05:32:00,
2013-04-02 00:42:00,35.0,24.0,30.25,NNW,338,0.0,0.0,65,0.00,,,0.00,,2013-04-02 05:42:00,
2013-04-02 00:52:00,35.0,25.0,30.26,NNW,338,0.0,0.0,66,0.00,,,0.00,,2013-04-02 05:52:00,
2013-04-02 01:02:00,34.0,25.0,30.26,NNW,338,0.0,0.0,68,0.00,,,0.00,,2013-04-02 06:02:00,
2013-04-02 01:12:00,34.0,25.0,30.26,NNW,338,0.0,0.0,68,0.00,,,0.00,,2013-04-02 06:12:00,
2013-04-02 01:22:00,33.0,24.0,30.27,NNW,338,0.0,0.0,69,0.00,,,0.00,,2013-04-02 06:22:00,
2013-04-02 01:32:00,34.0,24.0,30.27,NW,321,0.0,0.0,67,0.00,,,0.00,,2013-04-02 06:32:00,
2013-04-02 01:42:00,34.0,24.0,30.27,NW,321,0.0,0.0,67,0.00,,,0.00,,2013-04-02 06:42:00,
2013-04-02 01:52:00,34.0,24.0,30.27,NW,323,0.0,0.0,66,0.00,,,0.00,,2013-04-02 06:52:00,
2013-04-02 02:02:00,34.0,23.0,30.28,NW,324,0.0,0.0,65,0.00,,,0.00,,2013-04-02 07:02:00,
2013-04-02 02:12:00,34.0,23.0,30.28,NW,324,0.0,0.0,65,0.00,,,0.00,,2013-04-02 07:12:00,
2013-04-02 02:22:00,33.0,23.0,30.28,NW,324,0.0,0.0,65,0.00,,,0.00,,2013-04-02 07:22:00,
2013-04-02 02:32:00,32.0,22.0,30.28,NW,324,0.0,0.0,67,0.00,,,0.00,,2013-04-02 07:32:00,
2013-04-02 02:42:00,32.0,22.0,30.28,NW,324,0.0,0.0,67,0.00,,,0.00,,2013-04-02 07:42:00,
2013-04-02 02:52:00,32.0,23.0,30.28,NW,324,0.0,0.0,68,0.00,,,0.00,,2013-04-02 07:52:00,
2013-04-02 03:02:00,31.0,22.0,30.29,NW,323,0.0,0.0,69,0.00,,,0.00,,2013-04-02 08:02:00,
2013-04-02 03:13:00,31.0,22.0,30.29,NW,323,0.0,0.0,69,0.00,,,0.00,,2013-04-02 08:13:00,
2013-04-02 03:22:00,31.0,22.0,30.29,WNW,300,0.0,3.0,70,0.00,,,0.00,,2013-04-02 08:22:00,
2013-04-02 03:32:00,31.0,23.0,30.29,WNW,300,0.0,0.0,71,0.00,,,0.00,,2013-04-02 08:32:00,
2013-04-02 03:42:00,31.0,23.0,30.29,WNW,300,0.0,0.0,71,0.00,,,0.00,,2013-04-02 08:42:00,
2013-04-02 03:52:00,30.0,22.0,30.30,WNW,300,0.0,0.0,72,0.00,,,0.00,,2013-04-02 08:52:00,
2013-04-02 04:02:00,29.0,22.0,30.30,WNW,300,0.0,0.0,74,0.00,,,0.00,,2013-04-02 09:02:00,
2013-04-02 04:12:00,29.0,22.0,30.30,WNW,300,0.0,0.0,74,0.00,,,0.00,,2013-04-02 09:12:00,
2013-04-02 04:22:00,29.0,23.0,30.31,WNW,300,0.0,0.0,77,0.00,,,0.00,,2013-04-02 09:22:00,
2013-04-02 04:32:00,29.0,22.0,30.32,WNW,300,0.0,0.0,75,0.00,,,0.00,,2013-04-02 09:32:00,
2013-04-02 04:43:00,29.0,22.0,30.32,WNW,300,0.0,0.0,75,0.00,,,0.00,,2013-04-02 09:43:00,
2013-04-02 04:52:00,30.0,22.0,30.31,NW,306,0.0,0.0,73,0.00,,,0.00,,2013-04-02 09:52:00,
2013-04-02 05:03:00,29.0,21.0,30.31,NW,307,0.0,0.0,72,0.00,,,0.00,,2013-04-02 10:03:00,
2013-04-02 05:13:00,29.0,21.0,30.31,NW,307,0.0,0.0,72,0.00,,,0.00,,2013-04-02 10:13:00,
2013-04-02 05:23:00,30.0,21.0,30.31,NNW,339,0.0,0.0,70,0.00,,,0.00,,2013-04-02 10:23:00,
2013-04-02 05:33:00,30.0,21.0,30.31,NNW,344,0.0,3.0,69,0.00,,,0.00,,2013-04-02 10:33:00,
2013-04-02 05:42:00,30.0,21.0,30.31,NNW,344,0.0,3.0,69,0.00,,,0.00,,2013-04-02 10:42:00,
2013-04-02 05:52:00,29.0,21.0,30.31,NNW,344,0.0,0.0,71,0.00,,,0.00,,2013-04-02 10:52:00,
2013-04-02 06:02:00,29.0,21.0,30.31,NNW,344,0.0,0.0,71,0.00,,,0.00,,2013-04-02 11:02:00,
2013-04-02 06:12:00,29.0,21.0,30.31,NNW,344,0.0,0.0,71,0.00,,,0.00,,2013-04-02 11:12:00,
2013-04-02 06:22:00,28.0,21.0,30.32,NNW,344,0.0,0.0,75,0.00,,,0.00,,2013-04-02 11:22:00,
2013-04-02 06:33:00,28.0,21.0,30.33,NNW,344,0.0,0.0,76,0.00,,,0.00,,2013-04-02 11:33:00,
2013-04-02 06:43:00,28.0,21.0,30.33,NNW,344,0.0,0.0,76,0.00,,,0.00,,2013-04-02 11:43:00,
2013-04-02 06:52:00,28.0,21.0,30.34,NNW,344,0.0,0.0,75,0.00,,,0.00,,2013-04-02 11:52:00,
2013-04-02 07:02:00,28.0,21.0,30.35,NNW,344,0.0,0.0,74,0.00,,,0.00,,2013-04-02 12:02:00,
2013-04-02 07:12:00,28.0,21.0,30.35,NNW,344,0.0,0.0,74,0.00,,,0.00,,2013-04-02 12:12:00,
2013-04-02 07:22:00,28.0,21.0,30.36,NNW,344,0.0,0.0,75,0.00,,,0.00,,2013-04-02 12:22:00,
2013-04-02 07:32:00,29.0,22.0,30.37,NNW,344,0.0,0.0,74,0.00,,,0.00,,2013-04-02 12:32:00,
2013-04-02 07:42:00,29.0,22.0,30.37,NNW,344,0.0,0.0,74,0.00,,,0.00,,2013-04-02 12:42:00,
2013-04-02 07:52:00,30.0,22.0,30.37,NNW,344,0.0,0.0,72,0.00,,,0.00,,2013-04-02 12:52:00,
2013-04-02 08:02:00,31.0,23.0,30.38,NW,318,0.0,3.0,72,0.00,,,0.00,,2013-04-02 13:02:00,
2013-04-02 08:12:00,31.0,23.0,30.38,NW,318,0.0,3.0,72,0.00,,,0.00,,2013-04-02 13:12:00,
2013-04-02 08:22:00,32.0,23.0,30.38,NW,309,3.0,4.0,70,0.00,,,0.00,,2013-04-02 13:22:00,
2013-04-02 08:33:00,33.0,24.0,30.38,North,355,0.0,0.0,70,0.00,,,0.00,,2013-04-02 13:33:00,
2013-04-02 08:42:00,33.0,24.0,30.38,North,355,0.0,0.0,70,0.00,,,0.00,,2013-04-02 13:42:00,
2013-04-02 08:52:00,34.0,23.0,30.39,NNE,19,0.0,2.0,64,0.00,,,0.00,,2013-04-02 13:52:00,
2013-04-02 09:02:00,34.0,22.0,30.38,NNE,15,3.0,7.0,62,0.00,,,0.00,,2013-04-02 14:02:00,
2013-04-02 09:12:00,34.0,22.0,30.38,NNE,15,3.0,7.0,62,0.00,,,0.00,,2013-04-02 14:12:00,
2013-04-02 09:23:00,35.0,23.0,30.38,NNW,338,0.0,6.0,62,0.00,,,0.00,,2013-04-02 14:23:00,
2013-04-02 09:32:00,35.0,23.0,30.39,North,9,0.0,0.0,62,0.00,,,0.00,,2013-04-02 14:32:00,
2013-04-02 09:42:00,35.0,23.0,30.39,North,9,0.0,0.0,62,0.00,,,0.00,,2013-04-02 14:42:00,
2013-04-02 09:52:00,36.0,24.0,30.38,NW,306,0.0,0.0,61,0.00,,,0.00,,2013-04-02 14:52:00,
2013-04-02 10:02:00,37.0,24.0,30.37,NNW,345,0.0,7.0,58,0.00,,,0.00,,2013-04-02 15:02:00,
2013-04-02 10:11:00,37.0,24.0,30.37,NNW,345,0.0,7.0,58,0.00,,,0.00,,2013-04-02 15:11:00,
2013-04-02 10:22:00,38.0,21.0,30.38,NE,39,0.0,0.0,50,0.00,,,0.00,,2013-04-02 15:22:00,
2013-04-02 10:33:00,39.0,20.0,30.39,NNE,29,0.0,0.0,47,0.00,,,0.00,,2013-04-02 15:33:00,
2013-04-02 10:43:00,39.0,20.0,30.39,NNE,29,0.0,0.0,47,0.00,,,0.00,,2013-04-02 15:43:00,
2013-04-02 10:55:00,39.0,18.0,30.38,NE,54,0.0,0.0,43,0.00,,,0.00,,2013-04-02 15:55:00,
2013-04-02 11:04:00,39.0,21.0,30.39,North,5,5.0,7.0,48,0.00,,,0.00,,2013-04-02 16:04:00,
2013-04-02 11:13:00,39.0,21.0,30.39,North,5,5.0,7.0,48,0.00,,,0.00,,2013-04-02 16:13:00,
2013-04-02 11:24:00,40.0,21.0,30.38,NNW,329,0.0,6.0,47,0.00,,,0.00,,2013-04-02 16:24:00,
2013-04-02 11:35:00,40.0,21.0,30.38,NNW,327,0.0,8.0,47,0.00,,,0.00,,2013-04-02 16:35:00,
2013-04-02 11:43:00,40.0,21.0,30.38,NNW,327,0.0,8.0,47,0.00,,,0.00,,2013-04-02 16:43:00,
2013-04-02 11:53:00,40.0,21.0,30.38,NNW,327,0.0,8.0,47,0.00,,,0.00,,2013-04-02 16:53:00,
2013-04-02 12:05:00,41.0,22.0,30.37,ENE,78,0.0,0.0,46,0.00,,,0.00,,2013-04-02 17:05:00,
2013-04-02 12:13:00,41.0,22.0,30.37,ENE,78,0.0,0.0,46,0.00,,,0.00,,2013-04-02 17:13:00,
2013-04-02 12:24:00,42.0,21.0,30.36,ESE,109,0.0,7.0,43,0.00,,,0.00,,2013-04-02 17:24:00,
2013-04-02 12:34:00,42.0,21.0,30.36,WNW,285,3.0,8.0,42,0.00,,,0.00,,2013-04-02 17:34:00,
2013-04-02 12:43:00,42.0,21.0,30.36,WNW,285,3.0,8.0,42,0.00,,,0.00,,2013-04-02 17:43:00,
2013-04-02 12:54:00,42.0,19.0,30.35,NNE,30,2.0,11.0,40,0.00,,,0.00,,2013-04-02 17:54:00,
2013-04-02 13:03:00,43.0,21.0,30.35,NNW,340,0.0,6.0,41,0.00,,,0.00,,2013-04-02 18:03:00,
2013-04-02 13:12:00,43.0,21.0,30.35,NNW,340,0.0,6.0,41,0.00,,,0.00,,2013-04-02 18:12:00,
2013-04-02 13:23:00,43.0,20.0,30.35,NE,51,0.0,1.0,39,0.00,,,0.00,,2013-04-02 18:23:00,
2013-04-02 13:43:00,43.0,19.0,30.34,East,83,1.0,10.0,37,0.00,,,0.00,,2013-04-02 18:43:00,
2013-04-02 13:54:00,44.0,20.0,30.33,North,5,0.0,4.0,38,0.00,,,0.00,,2013-04-02 18:54:00,
2013-04-02 14:03:00,45.0,22.0,30.33,NNW,332,1.0,7.0,40,0.00,,,0.00,,2013-04-02 19:03:00,
2013-04-02 14:13:00,45.0,22.0,30.33,NNW,332,1.0,7.0,40,0.00,,,0.00,,2013-04-02 19:13:00,
2013-04-02 14:23:00,45.0,23.0,30.33,North,355,3.0,11.0,41,0.00,,,0.00,,2013-04-02 19:23:00,
2013-04-02 14:34:00,45.0,24.0,30.33,WNW,292,5.0,12.0,43,0.00,,,0.00,,2013-04-02 19:34:00,
2013-04-02 14:45:00,45.0,24.0,30.33,WNW,292,5.0,12.0,43,0.00,,,0.00,,2013-04-02 19:45:00,
2013-04-02 14:53:00,45.0,21.0,30.33,West,276,3.0,9.0,38,0.00,,,0.00,,2013-04-02 19:53:00,
2013-04-02 15:03:00,46.0,21.0,30.32,NW,316,0.0,8.0,36,0.00,,,0.00,,2013-04-02 20:03:00,
2013-04-02 15:13:00,46.0,21.0,30.32,NW,316,0.0,8.0,36,0.00,,,0.00,,2013-04-02 20:13:00,
2013-04-02 15:22:00,46.0,21.0,30.32,NW,317,3.0,10.0,37,0.00,,,0.00,,2013-04-02 20:22:00,
2013-04-02 15:33:00,46.0,22.0,30.31,NW,306,0.0,7.0,38,0.00,,,0.00,,2013-04-02 20:33:00,
2013-04-02 15:43:00,46.0,22.0,30.31,NW,306,0.0,7.0,38,0.00,,,0.00,,2013-04-02 20:43:00,
2013-04-02 15:53:00,46.0,22.0,30.31,NW,306,0.0,7.0,38,0.00,,,0.00,,2013-04-02 20:53:00,
2013-04-02 16:04:00,45.0,19.0,30.31,North,350,3.0,10.0,35,0.00,,,0.00,,2013-04-02 21:04:00,
2013-04-02 16:13:00,45.0,19.0,30.31,North,350,3.0,10.0,35,0.00,,,0.00,,2013-04-02 21:13:00,
2013-04-02 16:23:00,45.0,16.0,30.30,WNW,297,2.0,9.0,31,0.00,,,0.00,,2013-04-02 21:23:00,
2013-04-02 16:34:00,46.0,17.0,30.30,WNW,301,1.0,7.0,31,0.00,,,0.00,,2013-04-02 21:34:00,
2013-04-02 16:43:00,46.0,17.0,30.30,WNW,301,1.0,7.0,31,0.00,,,0.00,,2013-04-02 21:43:00,
2013-04-02 16:54:00,46.0,16.0,30.30,North,351,0.0,7.0,30,0.00,,,0.00,,2013-04-02 21:54:00,
2013-04-02 17:04:00,46.0,18.0,30.30,North,5,0.0,7.0,32,0.00,,,0.00,,2013-04-02 22:04:00,
2013-04-02 17:14:00,46.0,18.0,30.30,North,5,0.0,7.0,32,0.00,,,0.00,,2013-04-02 22:14:00,
2013-04-02 17:24:00,46.0,18.0,30.30,North,360,0.0,6.0,32,0.00,,,0.00,,2013-04-02 22:24:00,
2013-04-02 17:33:00,46.0,20.0,30.30,NNE,16,0.0,7.0,35,0.00,,,0.00,,2013-04-02 22:33:00,
2013-04-02 17:53:00,46.0,20.0,30.30,North,355,0.0,9.0,35,0.00,,,0.00,,2013-04-02 22:53:00,
2013-04-02 18:03:00,45.0,18.0,30.31,NW,325,4.0,8.0,34,0.00,,,0.00,,2013-04-02 23:03:00,
2013-04-02 18:13:00,45.0,18.0,30.31,NW,325,4.0,8.0,34,0.00,,,0.00,,2013-04-02 23:13:00,
2013-04-02 18:23:00,45.0,19.0,30.31,NW,319,5.0,9.0,35,0.00,,,0.00,,2013-04-02 23:23:00,
2013-04-02 18:42:00,45.0,19.0,30.32,NW,323,0.0,2.0,35,0.00,,,0.00,,2013-04-02 23:42:00,
2013-04-02 18:52:00,44.0,19.0,30.32,North,9,0.0,0.0,36,0.00,,,0.00,,2013-04-02 23:52:00,
2013-04-02 19:04:00,44.0,21.0,30.32,NW,325,0.0,2.0,39,0.00,,,0.00,,2013-04-03 00:04:00,
2013-04-02 19:13:00,44.0,21.0,30.32,NW,325,0.0,2.0,39,0.00,,,0.00,,2013-04-03 00:13:00,
2013-04-02 19:24:00,43.0,20.0,30.32,NW,324,0.0,0.0,40,0.00,,,0.00,,2013-04-03 00:24:00,
2013-04-02 19:33:00,42.0,21.0,30.32,NW,324,0.0,0.0,43,0.00,,,0.00,,2013-04-03 00:33:00,
2013-04-02 19:46:00,42.0,21.0,30.32,NW,324,0.0,0.0,43,0.00,,,0.00,,2013-04-03 00:46:00,
2013-04-02 19:53:00,41.0,22.0,30.33,NW,324,0.0,0.0,46,0.00,,,0.00,,2013-04-03 00:53:00,
2013-04-02 20:03:00,40.0,21.0,30.33,NW,324,0.0,0.0,47,0.00,,,0.00,,2013-04-03 01:03:00,
2013-04-02 20:12:00,40.0,21.0,30.33,NW,324,0.0,0.0,47,0.00,,,0.00,,2013-04-03 01:12:00,
2013-04-02 20:22:00,39.0,19.0,30.33,NW,324,0.0,0.0,45,0.00,,,0.00,,2013-04-03 01:22:00,
2013-04-02 20:33:00,38.0,21.0,30.33,NW,324,0.0,0.0,49,0.00,,,0.00,,2013-04-03 01:33:00,
2013-04-02 20:42:00,38.0,21.0,30.33,NW,324,0.0,0.0,49,0.00,,,0.00,,2013-04-03 01:42:00,
2013-04-02 20:52:00,38.0,23.0,30.34,NW,324,0.0,0.0,55,0.00,,,0.00,,2013-04-03 01:52:00,
2013-04-02 21:03:00,37.0,21.0,30.35,NW,324,0.0,0.0,51,0.00,,,0.00,,2013-04-03 02:03:00,
2013-04-02 21:13:00,37.0,21.0,30.35,NW,324,0.0,0.0,51,0.00,,,0.00,,2013-04-03 02:13:00,
2013-04-02 21:24:00,37.0,23.0,30.35,NW,324,0.0,0.0,57,0.00,,,0.00,,2013-04-03 02:24:00,
2013-04-02 21:34:00,36.0,21.0,30.35,NW,324,0.0,0.0,55,0.00,,,0.00,,2013-04-03 02:34:00,
2013-04-02 21:43:00,36.0,21.0,30.35,NW,324,0.0,0.0,55,0.00,,,0.00,,2013-04-03 02:43:00,
2013-04-02 21:52:00,37.0,21.0,30.35,NW,324,0.0,0.0,53,0.00,,,0.00,,2013-04-03 02:52:00,
2013-04-02 22:05:00,36.0,25.0,30.35,NW,324,0.0,0.0,63,0.00,,,0.00,,2013-04-03 03:05:00,
2013-04-02 22:13:00,36.0,25.0,30.35,NW,324,0.0,0.0,63,0.00,,,0.00,,2013-04-03 03:13:00,
2013-04-02 22:23:00,36.0,23.0,30.36,NW,324,0.0,0.0,59,0.00,,,0.00,,2013-04-03 03:23:00,
2013-04-02 22:37:00,36.0,22.0,30.36,NW,324,0.0,0.0,56,0.00,,,0.00,,2013-04-03 03:37:00,
2013-04-02 22:43:00,36.0,22.0,30.36,NW,324,0.0,0.0,56,0.00,,,0.00,,2013-04-03 03:43:00,
2013-04-02 22:53:00,36.0,22.0,30.36,NW,324,0.0,0.0,57,0.00,,,0.00,,2013-04-03 03:53:00,
2013-04-02 23:03:00,36.0,22.0,30.36,NW,324,0.0,0.0,57,0.00,,,0.00,,2013-04-03 04:03:00,
2013-04-02 23:12:00,36.0,22.0,30.36,NW,324,0.0,0.0,57,0.00,,,0.00,,2013-04-03 04:12:00,
2013-04-02 23:23:00,36.0,22.0,30.36,NW,324,0.0,0.0,57,0.00,,,0.00,,2013-04-03 04:23:00,
2013-04-02 23:33:00,35.0,23.0,30.35,NW,320,0.0,0.0,61,0.00,,,0.00,,2013-04-03 04:33:00,
2013-04-02 23:53:00,35.0,23.0,30.35,NW,309,0.0,2.0,60,0.00,,,0.00,,2013-04-03 04:53:00,